This demonstration page uses our WeatherBlox Daily Observations layout. Learn more.

40.92945, -100.16068

Hourly Observations for May 5, 2016

Temp ( °F °C ) Dew Point ( °F °C ) Humidity (%) Winds ( mph kmh ) Pressure ( in mb ) Visibility ( mi km ) Precip ( " mm )
12:15 am 00:15 Clear 49 9.4 42 5.8 78 78 Calm 30.09 1019 10 16.0934 N/A
12:35 am 00:35 Clear 47 8.3 41 5.1 80 80 Calm 30.09 1019 10 16.0934 N/A
12:55 am 00:55 Clear 46 7.5 40 4.3 80 80 ENE 5 7 30.09 1019 10 16.0934 N/A
1:15 am 01:15 Clear 45 7 40 4.5 84 84 Calm 30.12 1020 10 16.0934 N/A
1:35 am 01:35 Clear 44 6.6 40 4.5 87 87 W 3 6 30.12 1020 10 16.0934 N/A
1:55 am 01:55 Clear 44 6.8 40 4.5 85 85 Calm 30.12 1020 10 16.0934 N/A
2:15 am 02:15 Clear 45 7.2 41 5 86 86 Calm 30.12 1020 10 16.0934 N/A
2:35 am 02:35 Clear 43 6 39 4 87 87 WNW 3 6 30.12 1020 10 16.0934 N/A
2:55 am 02:55 Clear 43 6.3 40 4.5 88 88 Calm 30.12 1020 10 16.0934 N/A
3:15 am 03:15 Clear 43 6.1 40 4.3 88 88 N 3 6 30.12 1020 10 16.0934 N/A
3:35 am 03:35 Clear 43 6.1 40 4.4 89 89 Calm 30.12 1020 10 16.0934 N/A
3:55 am 03:55 Clear 42 5.5 38 3.6 88 88 Calm 30.12 1020 10 16.0934 N/A
4:15 am 04:15 Clear 41 5.2 38 3.6 90 90 Calm 30.12 1020 10 16.0934 N/A
4:35 am 04:35 Clear 42 5.6 39 3.7 88 88 Calm 30.12 1020 10 16.0934 N/A
4:55 am 04:55 Clear 41 5.1 38 3.1 87 87 Calm 30.12 1020 10 16.0934 N/A
5:15 am 05:15 Clear 41 4.8 38 3.3 90 90 Calm 30.12 1020 10 16.0934 N/A
5:35 am 05:35 Clear 42 5.5 38 3.3 86 86 Calm 30.12 1020 10 16.0934 N/A
5:55 am 05:55 Clear 41 4.8 37 3 88 88 Calm 30.12 1020 10 16.0934 N/A
6:15 am 06:15 Clear 40 4.2 37 2.6 89 89 Calm 30.15 1021 10 16.0934 N/A
6:35 am 06:35 Sunny 40 4.6 38 3.1 90 90 Calm 30.12 1020 7 11.26538 N/A
6:55 am 06:55 Sunny 43 6 39 3.9 87 87 Calm 30.15 1021 10 16.0934 N/A
7:15 am 07:15 Sunny 48 9 38 3.2 67 67 Calm 30.12 1020 10 16.0934 N/A
7:35 am 07:35 Sunny 56 13.5 39 4.1 53 53 Calm 30.09 1019 10 16.0934 N/A
7:55 am 07:55 Sunny 60 15.8 41 4.9 49 49 Calm 30.06 1018 10 16.0934 N/A
8:15 am 08:15 Sunny 62 16.9 43 5.9 49 49 Calm 30.06 1018 10 16.0934 N/A
8:35 am 08:35 Sunny 66 19.1 42 5.8 42 42 Calm 30.03 1017 10 16.0934 N/A
8:55 am 08:55 Sunny 69 20.6 43 5.9 38 38 Calm 30.03 1017 10 16.0934 N/A
9:15 am 09:15 Sunny 68 20.1 45 7.3 44 44 SE 5 7 30.03 1017 10 16.0934 N/A
9:35 am 09:35 Sunny 70 20.9 45 7.2 41 41 SSE 6 9 30 1016 10 16.0934 N/A
9:55 am 09:55 Sunny 73 22.5 43 6.1 35 35 S 6 9 30 1016 10 16.0934 N/A
10:15 am 10:15 Sunny 74 23.2 42 5.6 32 32 SSW 8 13 30 1016 10 16.0934 N/A
10:35 am 10:35 Sunny 74 23.5 44 6.5 34 34 S 9 15 30 1016 10 16.0934 N/A
10:55 am 10:55 Sunny 74 23.4 43 6.3 33 33 SSW 13 20 29.97 1015 10 16.0934 N/A
11:15 am 11:15 Sunny 76 24.2 45 7.2 34 34 SSW 9 15 29.94 1014 10 16.0934 N/A
11:35 am 11:35 Sunny 77 24.9 46 7.9 34 34 SSW 9 15 29.94 1014 10 16.0934 N/A
11:55 am 11:55 Sunny 76 24.7 45 7.4 33 33 SSW 13 20 29.94 1014 10 16.0934 N/A
12:15 pm 12:15 Sunny 76 24.5 45 7.3 33 33 SW 15 24 29.94 1014 10 16.0934 N/A
12:35 pm 12:35 Sunny 77 24.9 47 8.1 34 34 SSW 12 19 29.94 1014 10 16.0934 N/A
12:55 pm 12:55 Sunny 78 25.4 48 8.7 35 35 SSW 9 15 29.91 1013 10 16.0934 N/A
1:15 pm 13:15 Sunny 79 25.9 49 9.2 35 35 SSW 10 17 29.91 1013 10 16.0934 N/A
1:35 pm 13:35 Sunny 79 25.9 48 9 34 34 SSW 13 20 29.91 1013 10 16.0934 N/A
1:55 pm 13:55 Sunny 78 25.7 47 8.1 33 33 SSW 12 19 29.91 1013 10 16.0934 N/A
2:15 pm 14:15 Sunny 80 26.7 50 9.8 35 35 SSW 8 13 29.91 1013 10 16.0934 N/A
2:35 pm 14:35 Sunny 81 27 46 7.9 30 30 SW 5 7 29.91 1013 10 16.0934 N/A
2:55 pm 14:55 Sunny 83 28.5 46 7.9 27 27 SSW 9 15 29.88 1012 10 16.0934 N/A
3:15 pm 15:15 Sunny 87 30.6 46 7.7 24 24 S 8 13 29.88 1012 10 16.0934 N/A
3:35 pm 15:35 Sunny 85 29.6 47 8.6 27 27 SSW 9 15 29.88 1012 10 16.0934 N/A
3:55 pm 15:55 Sunny 85 29.6 49 9.7 29 29 S 10 17 29.88 1012 10 16.0934 N/A
4:15 pm 16:15 Sunny 85 29.6 48 9.1 28 28 SSE 12 19 29.85 1011 10 16.0934 N/A
4:35 pm 16:35 Sunny 85 29.7 48 9.1 28 28 S 14 22 29.85 1011 10 16.0934 N/A
4:55 pm 16:55 Sunny 85 29.5 49 9.2 28 28 S 12 19 29.85 1011 10 16.0934 N/A
5:15 pm 17:15 Sunny 87 30.3 49 9.4 27 27 SSE 13 20 29.85 1011 10 16.0934 N/A
5:35 pm 17:35 Sunny 86 30.1 48 8.9 27 27 S 15 24 29.85 1011 10 16.0934 N/A
5:55 pm 17:55 Sunny 84 29 49 9.2 29 29 S 14 22 29.85 1011 10 16.0934 N/A
6:15 pm 18:15 Sunny 83 28.6 49 9.7 31 31 S 14 22 29.85 1011 10 16.0934 N/A
6:35 pm 18:35 Sunny 82 28 48 9.1 31 31 SSE 15 24 29.85 1011 10 16.0934 N/A
6:55 pm 18:55 Sunny 81 27.3 48 8.8 31 31 S 15 24 29.83 1010 10 16.0934 N/A
7:15 pm 19:15 Sunny 81 27 49 9.2 33 33 S 13 20 29.83 1010 10 16.0934 N/A
7:35 pm 19:35 Sunny 79 26 48 9 34 34 S 13 20 29.88 1012 10 16.0934 N/A
7:55 pm 19:55 Sunny 77 24.8 49 9.3 37 37 S 12 19 29.88 1012 10 16.0934 N/A
8:15 pm 20:15 Sunny 71 21.4 49 9.5 47 47 S 9 15 29.91 1013 10 16.0934 N/A
8:35 pm 20:35 Sunny 65 18.2 49 9.6 57 57 S 9 15 29.94 1014 10 16.0934 N/A
8:55 pm 20:55 Clear 63 17.2 49 9.3 60 60 SSE 9 15 29.94 1014 10 16.0934 N/A
9:15 pm 21:15 Clear 61 16.2 48 9.1 63 63 SSE 8 13 29.97 1015 10 16.0934 N/A
9:35 pm 21:35 Clear 60 15.7 49 9.2 65 65 SSE 9 15 29.97 1015 10 16.0934 N/A
9:55 pm 21:55 Clear 60 15.4 49 9.3 67 67 SSE 8 13 29.97 1015 10 16.0934 N/A
10:15 pm 22:15 Clear 59 15 49 9.4 69 69 SSE 9 15 30 1016 10 16.0934 N/A
10:35 pm 22:35 Clear 60 15.5 49 9.2 66 66 SSE 10 17 30 1016 10 16.0934 N/A
10:55 pm 22:55 Clear 61 16.1 48 8.8 62 62 SSE 10 17 30 1016 10 16.0934 N/A
11:15 pm 23:15 Clear 60 15.5 47 8.6 64 64 S 10 17 30 1016 10 16.0934 N/A
11:35 pm 23:35 Clear 61 16.1 47 8.3 60 60 S 10 17 30 1016 10 16.0934 N/A
11:55 pm 23:55 Clear 61 16.2 47 8.2 59 59 S 14 22 30 1016 10 16.0934 N/A

Powered by AerisWeather